COSMOS 2251 DEB, 34477

Orbit data source: Space-Track

COSMOS 2251 DEB, 34477 is space debris in LEO originally from a launch on Wed, 16 Jun 1993 UTC launched from the Plesetsk Missile And Space Complex (PKMTR). The debris from Iridium 33, an American commercial communications satellite, has been tracked extensively since its accidental collision with the defunct Russian satellite Cosmos 2251 in 2009. This event, occurring at high speed in low Earth orbit (LEO), generated thousands of pieces of space debris, significantly increasing the risk of further collisions. The Iridium 33 debris cloud has impacted space traffic management and orbital debris mitigation strategies, making it a subject of ongoing study in space situational awareness.

Loading next visibility...
Identifier
34477, 1993-036TW
Orbit
LEO
Country
Flag of CISCIS
Related business
Manufacturer
Unknown
Mission
Spacecraft
Bus & Motor
Unknown
Mass
Unknown
Launch date (UTC)
1993-06-16 (33 years ago)
Launch vehicle
Unknown
Launch site
Plesetsk Missile And Space Complex (PKMTR)
Object type
Payload
Rocket body
Debris
Shape & HBR
Unknown shape, 0.1 m
Radar Cross Section
Small (<0.1 m²)

Expand to show TLE details & history
Last TLE update: 1 day ago

TLE from 1 day ago
0 COSMOS 2251 DEB
1 34477U 93036TW  26072.26872984  .00003081  00000-0  65884-3 0  9995
2 34477  73.9761 256.8940 0074247  61.8320 352.3958 14.57510470899441
Epoch: 2026-03-13T06:26Z
TLE epoch observation values (Epoch: 2026-03-13T06:26:58.258Z)
Latitude
51.25272°
Longitude
10.09543°
Altitude
657.023 km
Speed
7.562 km/s
True Right ascension
18h 30m 58s
True Declination
51° 04' 56"
Sunlit
Object was in daylight at epoch
Visualization orbit readout
Latitude
Unknown
Longitude
Unknown
Altitude
Unknown
Speed
Unknown
Apparent Right ascension
Unknown
Apparent Declination
Unknown
Sunlit
N/A
Visualization observer readout
Local Sidereal Time
12:40:16
Azimuth
Unknown
Elevation
Unknown
Doppler factor
Unknown
Orbital elements
Apogee altitude
751.373 km
Perigee altitude
646.285 km
Semi-major axis
7,076.966 km
Eccentricity
0.00742
Inclination
73.9761°
RAAN
256.894°
Arg. of periapsis
61.832°
True anomaly
352.28217°
Mean anomaly
352.3958°
Eccentric anomaly
352.33909°
Mean motion
3.64563 °/min
Orbital period
98.75 mins
BSTAR
0.00065884

Documentation

Showing up to 5 results
|